Linden, NJ

3:28 PM EDT on September 22, 2017 (GMT -0400)
Linden

Weather History for KLDJ - March, 2013

Change the Weather History Date:

Friday, March 1, 2013

  Actual Average (KEWR) Record (KEWR)
Temperature  
Mean Temperature 40 °F -  
Max Temperature 47 °F 46 °F 75 °F (1972)
Min Temperature 35 °F 29 °F 7 °F (1980)
Degree Days  
Heating Degree Days 24    
Moisture  
Dew Point 29 °F    
Average Humidity 64    
Maximum Humidity 85    
Minimum Humidity 47    
Precipitation  
Precipitation 0.00 in - - ()
Sea Level Pressure  
Sea Level Pressure 29.70 in    
Wind  
Wind Speed 9 mph (WNW)    
Max Wind Speed 16 mph    
Max Gust Speed 23 mph    
Visibility 10 miles    
Events      
Averages and records for this station are not official NWS values.
T = Trace of Precipitation, MM = Missing Value Source: NWS Daily Summary

Daily Weather History Graph

Daily Weather History Graph

Search for Another Location

Airport or City:

Trip Planner

Search our weather history database for the weather conditions in past years. The results will help you decide how hot, cold, wet, or windy it might be!

Date:

Astronomy

Mar. 01, 2013 Rise Set
Actual Time 6:30 AM EST 5:48 PM EST
Civil Twilight 6:03 AM EST 6:16 PM EST
Nautical Twilight 5:31 AM EST 6:47 PM EST
Astronomical Twilight 4:59 AM EST 7:19 PM EST
Moon 10:20 PM EST (3/1) 8:14 AM EST (3/1)
Length of Visible Light 12h 12m
Length of Day
11h 18m
Waning Gibbous, 83% of the Moon is Illuminated
Mar 1
Waning Gibbous
Mar 4
Last Quarter
Mar 11
New
Mar 19
First Quarter
Mar 27
Full

Hourly Weather History & Observations

Time (EST) Temp. Windchill Dew Point Humidity Pressure Visibility Wind Dir Wind Speed Gust Speed Precip Events Conditions
12:15 AM 38.3 °F 32.5 °F 31.5 °F 76% 29.62 in 10.0 mi West 8.1 mph - N/A   Clear
12:35 AM 37.4 °F 30.8 °F 31.5 °F 79% 29.62 in 10.0 mi West 9.2 mph - N/A   Clear
12:55 AM 37.6 °F 30.5 °F 31.8 °F 80% 29.62 in 10.0 mi West 10.4 mph - N/A   Clear
1:15 AM 37.2 °F 31.2 °F 31.6 °F 80% 29.62 in 10.0 mi West 8.1 mph - N/A   Clear
1:35 AM 36.7 °F 32.0 °F 31.6 °F 82% 29.62 in 10.0 mi West 5.8 mph - N/A   Clear
1:55 AM 36.3 °F 30.1 °F 31.6 °F 83% 29.62 in 10.0 mi West 8.1 mph - N/A   Clear
2:15 AM 36.1 °F 31.4 °F 31.8 °F 84% 29.62 in 10.0 mi WNW 5.8 mph - N/A   Clear
2:35 AM 36.0 °F 33.3 °F 31.8 °F 85% 29.63 in 10.0 mi West 3.5 mph - N/A   Clear
2:55 AM 36.0 °F 30.3 °F 31.5 °F 84% 29.63 in 10.0 mi WNW 6.9 mph - N/A   Clear
3:15 AM 36.5 °F 29.7 °F 31.5 °F 82% 29.63 in 10.0 mi West 9.2 mph - N/A   Clear
3:35 AM 36.5 °F 29.2 °F 31.5 °F 82% 29.64 in 10.0 mi West 10.4 mph - N/A   Clear
3:55 AM 36.3 °F 30.8 °F 31.1 °F 81% 29.64 in 10.0 mi West 6.9 mph - N/A   Clear
4:15 AM 36.5 °F 31.8 °F 31.1 °F 81% 29.64 in 10.0 mi WNW 5.8 mph - N/A   Clear
5:15 AM 36.7 °F 32.9 °F 30.7 °F 79% 29.66 in 10.0 mi West 4.6 mph - N/A   Clear
5:35 AM 36.5 °F 31.8 °F 30.7 °F 80% 29.67 in 10.0 mi WSW 5.8 mph - N/A   Clear
5:55 AM 36.7 °F 32.9 °F 30.6 °F 78% 29.67 in 10.0 mi WSW 4.6 mph - N/A   Clear
6:15 AM 36.5 °F 32.7 °F 30.2 °F 78% 29.67 in 10.0 mi West 4.6 mph - N/A   Clear
6:35 AM 35.1 °F 32.2 °F 29.8 °F 81% 29.67 in 10.0 mi West 3.5 mph - N/A   Clear
6:55 AM 35.6 °F - 29.5 °F 78% 29.67 in 10.0 mi Calm Calm - N/A   Clear
7:15 AM 36.1 °F 33.5 °F 30.0 °F 78% 29.68 in 10.0 mi South 3.5 mph - N/A   Clear
7:35 AM 37.2 °F 34.7 °F 30.4 °F 76% 29.69 in 10.0 mi WSW 3.5 mph - N/A   Clear
7:55 AM 39.0 °F 34.0 °F 30.0 °F 70% 29.69 in 10.0 mi WNW 6.9 mph - N/A   Clear
8:15 AM 40.5 °F 34.6 °F 30.2 °F 67% 29.69 in 10.0 mi WNW 9.2 mph - N/A   Clear
8:35 AM 40.5 °F 34.1 °F 29.7 °F 65% 29.70 in 10.0 mi WNW 10.4 mph - N/A   Clear
8:55 AM 41.5 °F 36.4 °F 29.5 °F 62% 29.70 in 10.0 mi NW 8.1 mph - N/A   Scattered Clouds
9:15 AM 41.9 °F 35.4 °F 29.7 °F 62% 29.70 in 10.0 mi NNW 11.5 mph 16.1 mph N/A   Mostly Cloudy
9:35 AM 42.3 °F 37.3 °F 29.7 °F 61% 29.71 in 10.0 mi NNW 8.1 mph - N/A   Overcast
9:55 AM 42.4 °F 36.1 °F 29.1 °F 59% 29.71 in 10.0 mi NNW 11.5 mph 19.6 mph N/A   Overcast
10:35 AM 43.7 °F 38.6 °F 29.8 °F 58% 29.71 in 10.0 mi WNW 9.2 mph - N/A   Overcast
10:55 AM 44.2 °F 38.8 °F 29.5 °F 56% 29.71 in 10.0 mi NW 10.4 mph - N/A   Overcast
11:15 AM 44.8 °F 40.4 °F 28.6 °F 53% 29.71 in 10.0 mi NW 8.1 mph - N/A   Overcast
11:35 AM 45.5 °F 40.3 °F 29.1 °F 53% 29.71 in 10.0 mi NW 10.4 mph - N/A   Overcast
11:55 AM 45.3 °F 41.1 °F 28.2 °F 51% 29.71 in 10.0 mi North 8.1 mph - N/A   Overcast
12:15 PM 45.0 °F 39.7 °F 28.0 °F 52% 29.71 in 10.0 mi NW 10.4 mph - N/A   Overcast
12:35 PM 45.7 °F 40.6 °F 28.0 °F 50% 29.70 in 10.0 mi NW 10.4 mph 16.1 mph N/A   Overcast
12:55 PM 46.0 °F 41.0 °F 27.9 °F 49% 29.70 in 10.0 mi WNW 10.4 mph 16.1 mph N/A   Overcast
1:15 PM 46.2 °F 40.8 °F 27.1 °F 47% 29.69 in 10.0 mi NW 11.5 mph 18.4 mph N/A   Overcast
1:35 PM 46.9 °F - 27.7 °F 47% 29.69 in 10.0 mi NW 11.5 mph 17.3 mph N/A   Overcast
1:55 PM 46.8 °F - 27.7 °F 47% 29.69 in 10.0 mi NW 10.4 mph - N/A   Overcast
2:15 PM 46.4 °F 41.5 °F 27.1 °F 47% 29.69 in 10.0 mi NW 10.4 mph 19.6 mph N/A   Overcast
2:55 PM 45.7 °F 41.5 °F 26.6 °F 47% 29.70 in 10.0 mi WNW 8.1 mph 16.1 mph N/A   Overcast
3:15 PM 45.1 °F 38.8 °F 27.1 °F 49% 29.70 in 10.0 mi WNW 13.8 mph 18.4 mph N/A   Overcast
3:35 PM 45.5 °F 40.8 °F 27.5 °F 49% 29.70 in 10.0 mi NW 9.2 mph 19.6 mph N/A   Overcast
3:55 PM 45.0 °F 38.5 °F 27.1 °F 50% 29.70 in 10.0 mi NW 13.8 mph 19.6 mph N/A   Overcast
4:15 PM 44.6 °F 39.7 °F 27.3 °F 51% 29.70 in 10.0 mi NW 9.2 mph 17.3 mph N/A   Overcast
4:35 PM 44.1 °F 37.7 °F 28.9 °F 55% 29.71 in 10.0 mi WNW 12.7 mph 21.9 mph N/A   Overcast
4:55 PM 43.9 °F 37.5 °F 28.9 °F 56% 29.71 in 10.0 mi WNW 12.7 mph - N/A   Overcast
5:15 PM 43.9 °F 37.5 °F 28.4 °F 55% 29.72 in 10.0 mi WNW 12.7 mph 19.6 mph N/A   Overcast
5:35 PM 43.2 °F 35.6 °F 29.1 °F 58% 29.73 in 10.0 mi WNW 16.1 mph 23.0 mph N/A   Overcast
6:15 PM 42.3 °F 34.8 °F 28.4 °F 58% 29.74 in 10.0 mi NW 15.0 mph 23.0 mph N/A   Overcast
6:35 PM 42.1 °F 36.1 °F 28.6 °F 59% 29.75 in 10.0 mi NW 10.4 mph 19.6 mph N/A   Overcast
6:55 PM 41.9 °F 36.9 °F 29.1 °F 61% 29.75 in 10.0 mi NW 8.1 mph - N/A   Overcast
7:15 PM 41.9 °F 34.0 °F 29.1 °F 61% 29.76 in 10.0 mi NNW 16.1 mph 20.7 mph N/A   Overcast
7:35 PM 41.5 °F 34.6 °F 28.2 °F 59% 29.77 in 10.0 mi NW 12.7 mph 20.7 mph N/A   Overcast
7:55 PM 41.4 °F 34.3 °F 28.2 °F 60% 29.77 in 10.0 mi WNW 12.7 mph 18.4 mph N/A   Overcast
8:15 PM 41.2 °F 33.7 °F 27.9 °F 59% 29.77 in 10.0 mi NW 13.8 mph 19.6 mph N/A   Overcast
8:35 PM 41.0 °F 33.9 °F 28.0 °F 60% 29.77 in 10.0 mi NW 12.7 mph 16.1 mph N/A   Overcast
9:15 PM 40.5 °F 33.2 °F 27.5 °F 60% 29.78 in 10.0 mi NW 12.7 mph 16.1 mph N/A   Overcast
9:35 PM 40.1 °F 33.2 °F 27.5 °F 61% 29.78 in 10.0 mi NW 11.5 mph 16.1 mph N/A   Overcast
9:55 PM 40.1 °F 36.9 °F 27.1 °F 60% 29.79 in 10.0 mi NW 4.6 mph - N/A   Overcast
10:15 PM 40.1 °F 34.1 °F 26.6 °F 59% 29.79 in 10.0 mi NNW 9.2 mph 18.4 mph N/A   Overcast
10:35 PM 39.6 °F 33.5 °F 26.2 °F 59% 29.80 in 10.0 mi NW 9.2 mph - N/A   Overcast
10:55 PM 39.2 °F 35.0 °F 26.8 °F 61% 29.80 in 10.0 mi WNW 5.8 mph - N/A   Overcast
11:15 PM 39.2 °F 32.5 °F 26.2 °F 60% 29.79 in 10.0 mi NNW 10.4 mph 16.1 mph N/A   Overcast
11:35 PM 38.8 °F 33.2 °F 25.7 °F 59% 29.79 in 10.0 mi NW 8.1 mph - N/A   Overcast
11:55 PM 38.3 °F 33.2 °F 26.4 °F 62% 29.79 in 10.0 mi NW 6.9 mph - N/A   Overcast